[[{"header":{"parameterUnit":"m.s-1","parameterCategory":1,"la1":30.2991,"la2":30.254,"lo1":-89.0895,"lo2":-89.0444,"dy":0.0017,"dx":0.0017,"nx":28,"ny":28,"refTime":"2024-04-13T03:00:00:Z","depth":0,"parameterNumber":2,"parameterNumberName":"U-component_of_WINDS"},"data":[0,0,0,0,0,0,0,0,0,0,0,0,0,0,0,0,0,0,0,0,0,0,0,0,0,0,0,0,0,0,0,0,0,0,0,0,0,0,0,0,0,0,0,0,0,0,0,0,0,0,0,0,0,0,0,0,0,0,0.8151,0.8151,0,0.8181,0.8181,0.8182,0.8185,0.8184,0.8184,0.8184,0.8215,0.8216,0.8217,0,0,0,0,0,0,0,0,0,0,0,0,0,0.8096,0.8097,0.8151,0.8151,0.8151,0.8181,0.8181,0.8182,0.8185,0.8184,0.8184,0.8183,0.8214,0.8216,0.8217,0,0,0,0,0,0,0,0,0,0,0,0,0,0.8122,0.8097,0.8151,0.8156,0.8157,0.8181,0.8181,0.8182,0.8185,0.8184,0.8184,0.8183,0.8214,0.8215,0.8217,0.8237,0,0,0.8222,0.8223,0,0,0,0,0,0,0,0,0.8121,0.8124,0.8155,0.8156,0.8157,0.8178,0.8173,0.82,0.8185,0.8174,0.8184,0.8183,0.8203,0.8206,0.8212,0.8238,0.824,0.8222,0.8223,0.8224,0.8225,0,0,0,0,0,0,0,0.8119,0.8123,0.8163,0.8156,0.8157,0.8158,0.8161,0.8178,0.8191,0.8175,0.8175,0.8179,0.8203,0.8211,0.8213,0.824,0.8222,0.8224,0.8225,0.8226,0.8284,0.8284,0,0,0,0,0,0,0.8116,0.8121,0.8162,0.8164,0.8137,0.8159,0.8163,0.8172,0.8191,0.8193,0.8179,0.8179,0.8208,0.8211,0.8214,0.8238,0.8224,0.8226,0.8227,0.8283,0.8284,0.8285,0,0,0,0,0,0,0.8115,0.8119,0.816,0.8142,0.8148,0.816,0.8171,0.8173,0.818,0.8194,0.8196,0.8184,0.8208,0.8212,0.8231,0.824,0.8226,0.8228,0.8283,0.8283,0.8284,0.8287,0,0,0,0,0,0,0.8113,0.8119,0.8127,0.8143,0.8149,0.8177,0.8172,0.8174,0.8183,0.8183,0.8199,0.8201,0.8208,0.8229,0.8233,0.8242,0.8229,0.8282,0.8283,0.8284,0.8286,0.8288,0.8289,0,0,0,0,0,0.8111,0.8126,0.8127,0.8132,0.8159,0.8177,0.8181,0.8188,0.8184,0.8191,0.82,0.8201,0.8238,0.8231,0.8235,0.8245,0.8281,0.8283,0.8284,0.8286,0.8288,0.8289,0,0,0,0,0,0,0.8111,0.8128,0.8129,0.815,0.8162,0.8178,0.8188,0.819,0.8203,0.8202,0.821,0.8214,0.8233,0.8241,0.8232,0.8265,0.8259,0.8262,0.8259,0.8261,0.8262,0.826,0.8231,0,0,0,0,0,0.8113,0.8127,0.8142,0.8159,0.8165,0.8175,0.8184,0.8188,0.8201,0.8206,0.8216,0.8229,0.8243,0.8253,0.8267,0.8288,0.8291,0.8296,0.8298,0.8299,0.8301,0.8313,0.8315,0.8289,0.8289,0.8289,0,0,0.8118,0.813,0.8138,0.8159,0.8169,0.8183,0.818,0.8195,0.8205,0.8208,0.8227,0.8235,0.825,0.827,0.8279,0.8277,0.8309,0.8301,0.8301,0.8303,0.8314,0.8317,0.8319,0.8289,0.8289,0.8289,0,0,0.8135,0.8145,0.816,0.817,0.8185,0.8192,0.8195,0.8211,0.8216,0.8235,0.8238,0.8251,0.8275,0.8285,0.8294,0.8314,0.8315,0.8319,0.8326,0.8338,0.834,0.8342,0.8349,0.8352,0.832,0.832,0.832,0,0.8139,0.8161,0.8168,0.8183,0.8192,0.8195,0.8211,0.822,0.8239,0.8245,0.8242,0.8273,0.8283,0.8306,0.8311,0.8317,0.8322,0.8317,0.8339,0.8341,0.8343,0.835,0.8353,0.8321,0.8321,0.8321,0.8321,0,0.8166,0.8181,0.8191,0.8209,0.8219,0.8235,0.8244,0.8253,0.8257,0.8264,0.8283,0.8295,0.8312,0.8317,0.8321,0.8341,0.8339,0.8337,0.8332,0.8345,0.8352,0.8355,0.8321,0.8321,0.8321,0.8321,0,0,0.8183,0.8205,0.8208,0.8217,0.8233,0.8245,0.826,0.8276,0.8284,0.8297,0.831,0.8331,0.833,0.8339,0.8344,0.8354,0.8369,0.8351,0.8352,0.8354,0.8392,0.8393,0.8396,0.837,0.8371,0.8371,0.8391,0,0.8202,0.8229,0.8236,0.8259,0.8273,0.8276,0.8289,0.8301,0.8308,0.8321,0.8329,0.8344,0.8341,0.8346,0.8356,0.8365,0.8377,0.8364,0.8382,0.8383,0.8379,0.84,0.8401,0.8419,0.8394,0.8394,0.8394,0,0.8227,0.824,0.8265,0.828,0.8286,0.8298,0.8313,0.8325,0.8339,0.8343,0.8354,0.8357,0.8373,0.8367,0.839,0.838,0.8388,0.8394,0.8395,0.8397,0.839,0.8403,0.8425,0.8428,0.8399,0.8398,0.8398,0,0.8238,0.8262,0.828,0.8287,0.8304,0.8312,0.832,0.8333,0.8342,0.8355,0.8362,0.8377,0.8385,0.8397,0.8404,0.8399,0.8426,0.842,0.843,0.843,0.8436,0.8436,0.846,0.8441,0.8441,0.8441,0.8441,0,0.8258,0.8273,0.8285,0.8296,0.8313,0.832,0.8337,0.8344,0.8356,0.8368,0.8372,0.8384,0.8393,0.8406,0.8412,0.843,0.8433,0.8437,0.8439,0.8437,0.8437,0.8443,0.8442,0.8442,0.8441,0.8441,0.8441,0,0.8272,0.8281,0.8301,0.8316,0.832,0.8332,0.8344,0.8355,0.8362,0.8378,0.8383,0.8394,0.8409,0.8418,0.8438,0.8442,0.8461,0.8462,0.8457,0.8458,0.8467,0.8466,0.8497,0.8501,0.8479,0.8479,0.8479,0,0.8285,0.8296,0.8313,0.8321,0.8329,0.8343,0.8352,0.836,0.837,0.8386,0.8395,0.841,0.8423,0.8448,0.8458,0.8473,0.8474,0.8484,0.8477,0.8475,0.8475,0.8474,0.8475,0.8485,0.8486,0.8486,0.8486,0,0.8306,0.8309,0.8323,0.8338,0.8349,0.8361,0.8373,0.838,0.8389,0.84,0.8416,0.8426,0.8446,0.8461,0.8477,0.8485,0.8487,0.8488,0.8491,0.849,0.8486,0.8488,0.8461,0.8487,0.8487,0.8487,0.8487,0.8487,0.832,0.833,0.8343,0.8358,0.8368,0.8379,0.839,0.8398,0.8412,0.8428,0.8432,0.8449,0.8462,0.8483,0.8492,0.8505,0.8503,0.8508,0.8509,0.851,0.851,0.8484,0.8508,0.8508,0.8508,0.8508,0.8508,0,0.8341,0.835,0.8363,0.838,0.8391,0.8392,0.8405,0.8415,0.8429,0.8441,0.8454,0.8472,0.8487,0.8498,0.8514,0.8523,0.8524,0.8526,0.8526,0.8528,0.8511,0.8507,0.8525,0.8525,0.8525,0.8525,0.8525,0.8525,0.8354,0.8372,0.8377,0.8399,0.8408,0.8424,0.8431,0.8442,0.8451,0.8471,0.8484,0.8491,0.8502,0.8519,0.8533,0.8536,0.8541,0.8544,0.8547,0.8531,0.8529,0.8527,0.8523,0.8545,0.8545,0.8563,0.8563,0.8563]},{"header":{"parameterUnit":"m.s-1","parameterCategory":1,"la1":30.2991,"la2":30.254,"lo1":-89.0895,"lo2":-89.0444,"dy":0.0017,"dx":0.0017,"nx":28,"ny":28,"refTime":"2024-04-13T03:00:00:Z","depth":0,"parameterNumber":3,"parameterNumberName":"V-component_of_WINDS"},"data":[0,0,0,0,0,0,0,0,0,0,0,0,0,0,0,0,0,0,0,0,0,0,0,0,0,0,0,0,0,0,0,0,0,0,0,0,0,0,0,0,0,0,0,0,0,0,0,0,0,0,0,0,0,0,0,0,0,0,-1.8848,-1.8849,0,-1.8938,-1.8939,-1.894,-1.8958,-1.8957,-1.8957,-1.8956,-1.9048,-1.9051,-1.9054,0,0,0,0,0,0,0,0,0,0,0,0,0,-1.8695,-1.8697,-1.8848,-1.885,-1.8851,-1.8938,-1.8939,-1.894,-1.8958,-1.8957,-1.8957,-1.8956,-1.9047,-1.905,-1.9054,0,0,0,0,0,0,0,0,0,0,0,0,0,-1.877,-1.8698,-1.8848,-1.887,-1.8873,-1.8937,-1.8939,-1.894,-1.8958,-1.8957,-1.8956,-1.8955,-1.9045,-1.905,-1.9054,-1.9103,0,0,-1.9069,-1.9071,0,0,0,0,0,0,0,0,-1.8766,-1.8776,-1.8866,-1.8869,-1.8872,-1.8936,-1.8918,-1.8995,-1.8959,-1.8926,-1.8956,-1.8955,-1.9011,-1.9019,-1.9038,-1.9107,-1.9111,-1.9069,-1.9072,-1.9074,-1.9075,0,0,0,0,0,0,0,-1.8761,-1.8772,-1.8884,-1.8867,-1.8871,-1.8876,-1.8885,-1.8933,-1.8973,-1.8929,-1.893,-1.8941,-1.9013,-1.9033,-1.904,-1.9113,-1.9069,-1.9073,-1.9076,-1.9078,-1.9228,-1.9229,0,0,0,0,0,0,-1.8752,-1.8768,-1.8881,-1.8886,-1.8815,-1.8879,-1.889,-1.8916,-1.8973,-1.898,-1.8941,-1.8941,-1.9026,-1.9034,-1.9043,-1.9104,-1.9074,-1.9078,-1.9081,-1.9226,-1.9228,-1.9229,0,0,0,0,0,0,-1.8748,-1.8761,-1.8877,-1.8828,-1.8843,-1.8883,-1.8912,-1.8919,-1.8939,-1.8982,-1.899,-1.8955,-1.9025,-1.9037,-1.9088,-1.9108,-1.908,-1.9084,-1.9225,-1.9227,-1.9229,-1.9226,0,0,0,0,0,0,-1.8744,-1.876,-1.8779,-1.8828,-1.8845,-1.8921,-1.8914,-1.8921,-1.8947,-1.8947,-1.8997,-1.9004,-1.9025,-1.9081,-1.9093,-1.9113,-1.9088,-1.9223,-1.9226,-1.9228,-1.9225,-1.9228,-1.923,0,0,0,0,0,-1.8738,-1.8775,-1.878,-1.8793,-1.8869,-1.8922,-1.8932,-1.8956,-1.8948,-1.8968,-1.8996,-1.9002,-1.9104,-1.9086,-1.91,-1.9122,-1.9222,-1.9225,-1.9228,-1.9223,-1.9227,-1.923,0,0,0,0,0,0,-1.8727,-1.8781,-1.8788,-1.8841,-1.8877,-1.8925,-1.895,-1.8959,-1.8997,-1.8996,-1.9024,-1.9035,-1.9085,-1.9109,-1.9088,-1.9172,-1.9163,-1.9168,-1.9155,-1.9159,-1.9161,-1.9154,-1.9092,0,0,0,0,0,-1.873,-1.8768,-1.8814,-1.8857,-1.8874,-1.8909,-1.8932,-1.8948,-1.8986,-1.9001,-1.9033,-1.9069,-1.911,-1.9136,-1.9175,-1.9228,-1.924,-1.925,-1.9253,-1.9255,-1.9259,-1.929,-1.9295,-1.9238,-1.9238,-1.9238,0,0,-1.8738,-1.8773,-1.8795,-1.8855,-1.8885,-1.8923,-1.8921,-1.8962,-1.8991,-1.9007,-1.9058,-1.9083,-1.9125,-1.9178,-1.9203,-1.9199,-1.9278,-1.9259,-1.926,-1.9263,-1.9293,-1.9298,-1.9303,-1.924,-1.924,-1.924,0,0,-1.8773,-1.8802,-1.8841,-1.8871,-1.8916,-1.8939,-1.8948,-1.8995,-1.9012,-1.9063,-1.9076,-1.9111,-1.918,-1.921,-1.9234,-1.9281,-1.9288,-1.9293,-1.9307,-1.9336,-1.9341,-1.9345,-1.9362,-1.9367,-1.9297,-1.9297,-1.9297,0,-1.8777,-1.8835,-1.886,-1.8901,-1.8927,-1.8944,-1.8983,-1.9011,-1.9066,-1.9084,-1.9079,-1.9166,-1.9196,-1.9256,-1.9267,-1.9287,-1.9298,-1.9287,-1.9338,-1.9343,-1.9347,-1.9363,-1.9369,-1.9297,-1.9297,-1.9297,-1.9297,0,-1.8839,-1.8879,-1.8905,-1.8958,-1.8987,-1.9027,-1.9058,-1.9085,-1.9098,-1.9122,-1.9174,-1.9211,-1.9258,-1.9274,-1.9287,-1.9336,-1.9332,-1.9333,-1.9323,-1.9352,-1.9368,-1.9374,-1.9298,-1.9298,-1.9297,-1.9297,0,0,-1.8868,-1.8934,-1.8943,-1.8968,-1.9018,-1.905,-1.9091,-1.9137,-1.916,-1.9197,-1.9233,-1.9291,-1.9291,-1.9319,-1.9336,-1.9361,-1.9396,-1.9359,-1.936,-1.9364,-1.9453,-1.9452,-1.9459,-1.9402,-1.9403,-1.9404,-1.9449,0,-1.8908,-1.8981,-1.9005,-1.9066,-1.9104,-1.9121,-1.9156,-1.9191,-1.9215,-1.925,-1.9276,-1.9317,-1.9315,-1.9332,-1.9358,-1.9386,-1.9414,-1.9383,-1.9435,-1.9436,-1.9423,-1.9467,-1.9466,-1.9507,-1.9455,-1.9456,-1.9457,0,-1.8965,-1.9003,-1.9068,-1.9114,-1.9131,-1.9163,-1.9207,-1.9241,-1.9282,-1.9297,-1.9328,-1.9343,-1.9386,-1.9375,-1.9436,-1.9414,-1.9437,-1.9454,-1.9456,-1.9462,-1.9448,-1.9473,-1.9521,-1.9526,-1.9467,-1.9466,-1.9466,0,-1.8979,-1.9048,-1.9095,-1.9116,-1.9171,-1.9193,-1.9217,-1.9256,-1.9282,-1.9322,-1.9339,-1.9383,-1.9406,-1.944,-1.9466,-1.9456,-1.9525,-1.9516,-1.9539,-1.9538,-1.9552,-1.9551,-1.9603,-1.9567,-1.9567,-1.9567,-1.9567,0,-1.9022,-1.9061,-1.9103,-1.9132,-1.9176,-1.9204,-1.9247,-1.9272,-1.9307,-1.9342,-1.9359,-1.9391,-1.9424,-1.9461,-1.9482,-1.9529,-1.9539,-1.9553,-1.9558,-1.9551,-1.955,-1.9566,-1.9564,-1.9569,-1.9568,-1.9568,-1.9568,0,-1.9046,-1.9075,-1.9128,-1.9176,-1.9189,-1.922,-1.9261,-1.929,-1.9314,-1.9358,-1.937,-1.9408,-1.9452,-1.9482,-1.9538,-1.9552,-1.9604,-1.9608,-1.959,-1.9592,-1.9614,-1.9611,-1.9679,-1.9689,-1.9645,-1.9646,-1.9646,0,-1.9071,-1.9101,-1.9152,-1.9177,-1.9201,-1.924,-1.9267,-1.9295,-1.9323,-1.9371,-1.9395,-1.944,-1.9478,-1.9547,-1.958,-1.9624,-1.9629,-1.965,-1.9636,-1.9628,-1.963,-1.9627,-1.9631,-1.9652,-1.9652,-1.9653,-1.9653,0,-1.9112,-1.9125,-1.9163,-1.9207,-1.9239,-1.9274,-1.931,-1.9329,-1.9364,-1.9394,-1.9439,-1.9469,-1.9526,-1.9571,-1.9618,-1.9643,-1.9654,-1.9657,-1.9665,-1.9658,-1.9646,-1.9653,-1.9596,-1.9655,-1.9655,-1.9655,-1.9655,-1.9655,-1.9137,-1.9165,-1.9206,-1.9248,-1.9278,-1.9311,-1.9341,-1.9369,-1.9407,-1.9456,-1.9471,-1.9518,-1.9558,-1.9621,-1.9647,-1.9685,-1.9683,-1.9694,-1.9697,-1.9699,-1.9699,-1.964,-1.9693,-1.9693,-1.9693,-1.9693,-1.9693,0,-1.918,-1.9206,-1.9245,-1.9294,-1.9328,-1.9335,-1.9375,-1.9403,-1.9444,-1.948,-1.9517,-1.9569,-1.9613,-1.9649,-1.9694,-1.9718,-1.9724,-1.9728,-1.9727,-1.9733,-1.9698,-1.9687,-1.9723,-1.9723,-1.9723,-1.9723,-1.9723,-1.9723,-1.9205,-1.9253,-1.9271,-1.9334,-1.9361,-1.9407,-1.9429,-1.946,-1.9489,-1.9547,-1.9583,-1.9606,-1.9643,-1.9691,-1.9731,-1.9741,-1.9757,-1.9761,-1.9771,-1.9738,-1.9735,-1.9732,-1.9721,-1.9764,-1.9764,-1.9803,-1.9803,-1.9803]}]]